Location: Bukit Lungun
(2.6833°N, 113.9667°E)
Time: 10:47:44
(UTC+00:00)

Cosmos 1238 Rocket - Pass Details

Date: 02 March 2021
Orbit: 375 x 1021 km, 83.0° (Epoch: 20 April)

Event Time Altitude Azimuth Distance (km) Brightness Sun altitude
Rises 12:02:08 0° 178° (S) 3,672 7.1 -21.6°
Reaches altitude 10° 12:04:49 10° 175° (S) 2,663 6.3 -22.3°
Maximum altitude 12:10:53 65° 94° (E) 927 3.6 -23.8°
Enters shadow 12:12:09 50° 38° (NE) 1,042 3.8 -24.1°
